{"data":{"norad_id":69490,"intl_designator":"2026-131N","name":"STARLINK-37879","alt_names":[],"object_type":"PAYLOAD","status":"ACTIVE","operator":null,"country":"US","launch_date":"2026-06-11","launch_site_code":"AFWTR","launch_vehicle":null,"mission":null,"orbit_class":"UNKNOWN","rcs_meters":null,"size_class":null,"mass_kg":null,"dimensions":null,"purposes":["comms"],"wikipedia_slug":null,"has_3d_model":false,"image_url":null,"decayed_at":null,"tle_current":{"epoch":"2026-09-19T19:36:39.909312Z","epoch_age_seconds":84423,"freshness":"FRESH","line1":"1 69490U 26131N   26262.81712858  .00010890  00000+0  33908-3 0  9992","line2":"2 69490  97.2843 283.7050 0001318  93.1469 266.9925 15.33451539 16794","mean_motion":15.33451539,"eccentricity":0.0001318,"inclination_deg":97.2843,"raan_deg":283.705,"arg_perigee_deg":93.1469,"mean_anomaly_deg":266.9925,"bstar":0.00033908,"rev_number":1679,"period_min":93.905804218571,"perigee_km":464.62172460107,"apogee_km":466.42571356662,"semimajor_km":6843.6607190838,"source":"CELESTRAK","updated_at":"2026-09-20T09:00:44.207693Z"}}}